When you browse on this site, cookies collect data to enhance your experience and personalize the content and advertising you see.
Visit our Privacy Policy to learn more. By continuing to use the site, you agree to this use of cookies and data.
  • In Hungary
  • List of Countries
  • For 7 days
  • Water Temperature
  • Weather Map
  • News
  • Weather Widgets
  • user-avatar
    Login

    Hourly Weather Shuniha

    Today, 22 January, Wednesday

    Time Temperature Precipitation Wind Pressure Humidity
    00:00 -4°C° 0 mm 6 mps 729 mmHg 78%
    01:00 -4°C° 0 mm 6 mps 729 mmHg 79%
    02:00 -4°C° 0 mm 6 mps 729 mmHg 82%
    03:00 -4°C° 0 mm 5 mps 728 mmHg 83%
    04:00 -4°C° 0 mm 5 mps 728 mmHg 83%
    05:00 -5°C° 0 mm 5 mps 727 mmHg 83%
    06:00 -4°C° 0 mm 5 mps 727 mmHg 83%
    07:00 -4°C° 0 mm 5 mps 726 mmHg 83%
    08:00 -4°C° 0 mm 5 mps 726 mmHg 83%
    09:00 -4°C° 0.3 mm 5 mps 726 mmHg 80%
    10:00 -4°C° 0.3 mm 5 mps 726 mmHg 77%
    11:00 -2°C° 0.3 mm 5 mps 725 mmHg 74%
    12:00 -4°C° 0.1 mm 5 mps 726 mmHg 74%
    13:00 -4°C° 0.1 mm 5 mps 726 mmHg 74%
    14:00 -3°C° 0.1 mm 4 mps 726 mmHg 74%
    15:00 -4°C° 0 mm 4 mps 727 mmHg 77%
    16:00 -4°C° 0 mm 4 mps 727 mmHg 80%
    17:00 -5°C° 0 mm 4 mps 727 mmHg 83%
    18:00 -5°C° 0 mm 4 mps 728 mmHg 82%
    19:00 -5°C° 0 mm 4 mps 729 mmHg 80%
    20:00 -6°C° 0 mm 5 mps 729 mmHg 79%
    21:00 -6°C° 0.1 mm 5 mps 730 mmHg 80%
    22:00 -7°C° 0.1 mm 5 mps 730 mmHg 82%
    23:00 -7°C° 0.1 mm 5 mps 730 mmHg 83%

    Tomorrow, 23 January, Thursday

    Time Temperature Precipitation Wind Pressure Humidity
    00:00 -8°C° 0.1 mm 5 mps 731 mmHg 81%
    01:00 -9°C° 0.1 mm 6 mps 732 mmHg 79%
    02:00 -10°C° 0.1 mm 6 mps 733 mmHg 77%
    03:00 -10°C° 0 mm 6 mps 733 mmHg 75%
    04:00 -11°C° 0 mm 6 mps 734 mmHg 72%
    05:00 -11°C° 0 mm 6 mps 734 mmHg 69%
    06:00 -11°C° 0 mm 6 mps 734 mmHg 68%
    07:00 -11°C° 0 mm 5 mps 735 mmHg 67%
    08:00 -11°C° 0 mm 5 mps 735 mmHg 66%
    09:00 -11°C° 0 mm 5 mps 735 mmHg 64%
    10:00 -10°C° 0 mm 5 mps 736 mmHg 63%
    11:00 -10°C° 0 mm 5 mps 736 mmHg 61%
    12:00 -10°C° 0 mm 5 mps 736 mmHg 63%
    13:00 -8°C° 0 mm 5 mps 736 mmHg 64%
    14:00 -8°C° 0 mm 5 mps 737 mmHg 66%
    15:00 -10°C° 0 mm 5 mps 737 mmHg 67%
    16:00 -10°C° 0 mm 4 mps 737 mmHg 69%
    17:00 -10°C° 0 mm 4 mps 738 mmHg 70%
    18:00 -9°C° 0 mm 3 mps 738 mmHg 71%
    19:00 -10°C° 0 mm 3 mps 739 mmHg 72%
    20:00 -10°C° 0 mm 3 mps 739 mmHg 73%
    21:00 -10°C° 0 mm 3 mps 739 mmHg 73%
    22:00 -10°C° 0 mm 3 mps 739 mmHg 74%
    23:00 -9°C° 0 mm 2 mps 739 mmHg 74%

    Day after tomorrow, 24 January, Friday

    Time Temperature Precipitation Wind Pressure Humidity
    00:00 -9°C° 0 mm 2 mps 738 mmHg 74%
    01:00 -8°C° 0 mm 2 mps 738 mmHg 75%
    02:00 -8°C° 0 mm 2 mps 738 mmHg 75%
    03:00 -9°C° 0 mm 3 mps 737 mmHg 79%
    04:00 -8°C° 0 mm 3 mps 736 mmHg 82%
    05:00 -9°C° 0 mm 4 mps 735 mmHg 86%
    06:00 -8°C° 0.4 mm 4 mps 734 mmHg 89%
    07:00 -7°C° 0.4 mm 5 mps 733 mmHg 92%
    08:00 -6°C° 0.4 mm 5 mps 732 mmHg 95%
    09:00 -5°C° 0.2 mm 5 mps 732 mmHg 93%
    10:00 -5°C° 0.2 mm 5 mps 731 mmHg 92%
    11:00 -4°C° 0.2 mm 5 mps 730 mmHg 91%
    12:00 -2°C° 0.2 mm 5 mps 730 mmHg 93%
    13:00 -2°C° 0.2 mm 5 mps 729 mmHg 95%
    14:00 -1°C° 0.2 mm 5 mps 729 mmHg 97%
    15:00 -2°C° 0.1 mm 5 mps 729 mmHg 92%
    16:00 -2°C° 0.1 mm 5 mps 729 mmHg 88%
    17:00 -4°C° 0.1 mm 5 mps 729 mmHg 84%
    18:00 -4°C° 0 mm 5 mps 729 mmHg 85%
    19:00 -4°C° 0 mm 4 mps 730 mmHg 86%
    20:00 -4°C° 0 mm 4 mps 730 mmHg 87%
    21:00 -5°C° 0 mm 4 mps 730 mmHg 88%
    22:00 -5°C° 0 mm 4 mps 730 mmHg 89%
    23:00 -5°C° 0 mm 4 mps 730 mmHg 91%

    25 January, Saturday

    Time Temperature Precipitation Wind Pressure Humidity
    00:00 -5°C° 0 mm 4 mps 730 mmHg 91%
    01:00 -5°C° 0 mm 3 mps 730 mmHg 92%
    02:00 -5°C° 0 mm 3 mps 730 mmHg 93%
    03:00 -4°C° 0 mm 3 mps 729 mmHg 91%
    04:00 -4°C° 0 mm 4 mps 729 mmHg 89%
    05:00 -3°C° 0 mm 4 mps 729 mmHg 87%
    06:00 -3°C° 0 mm 4 mps 729 mmHg 87%
    07:00 -4°C° 0 mm 4 mps 728 mmHg 88%
    08:00 -4°C° 0 mm 4 mps 728 mmHg 88%
    09:00 -3°C° 0 mm 4 mps 728 mmHg 86%
    10:00 -4°C° 0 mm 5 mps 727 mmHg 85%
    11:00 -4°C° 0 mm 5 mps 727 mmHg 83%
    12:00 -4°C° 0.1 mm 6 mps 726 mmHg 85%
    13:00 -4°C° 0.1 mm 6 mps 726 mmHg 86%
    14:00 -4°C° 0.1 mm 6 mps 725 mmHg 88%
    15:00 -4°C° 0.6 mm 6 mps 725 mmHg 84%
    16:00 -4°C° 0.6 mm 6 mps 725 mmHg 80%
    17:00 -4°C° 0.6 mm 6 mps 725 mmHg 76%
    18:00 -5°C° 0.1 mm 6 mps 726 mmHg 79%
    19:00 -5°C° 0.1 mm 6 mps 727 mmHg 81%
    20:00 -6°C° 0.1 mm 6 mps 728 mmHg 84%
    21:00 -6°C° 0 mm 6 mps 728 mmHg 84%
    22:00 -6°C° 0 mm 6 mps 729 mmHg 85%
    23:00 -6°C° 0 mm 6 mps 729 mmHg 86%

    26 January, Sunday

    Time Temperature Precipitation Wind Pressure Humidity
    00:00 -6°C° 0.2 mm 6 mps 730 mmHg 86%
    01:00 -6°C° 0.2 mm 6 mps 731 mmHg 86%
    02:00 -8°C° 0.2 mm 6 mps 731 mmHg 86%
    03:00 -7°C° 0.1 mm 5 mps 732 mmHg 85%
    04:00 -7°C° 0.1 mm 5 mps 733 mmHg 85%
    05:00 -8°C° 0.1 mm 5 mps 733 mmHg 85%
    06:00 -8°C° 0 mm 5 mps 734 mmHg 84%
    07:00 -8°C° 0 mm 4 mps 735 mmHg 84%
    08:00 -9°C° 0 mm 4 mps 736 mmHg 83%
    09:00 -9°C° 0 mm 4 mps 737 mmHg 81%
    10:00 -8°C° 0 mm 4 mps 738 mmHg 79%
    11:00 -8°C° 0 mm 4 mps 739 mmHg 77%
    12:00 -8°C° 0 mm 4 mps 740 mmHg 76%
    13:00 -7°C° 0 mm 3 mps 740 mmHg 75%
    14:00 -7°C° 0 mm 3 mps 741 mmHg 74%
    15:00 -7°C° 0 mm 2 mps 741 mmHg 78%
    16:00 -8°C° 0 mm 2 mps 742 mmHg 83%
    17:00 -8°C° 0 mm 1 mps 743 mmHg 87%
    18:00 -8°C° 0 mm 1 mps 743 mmHg 88%
    19:00 -9°C° 0 mm 1 mps 744 mmHg 88%
    20:00 -9°C° 0 mm 0 mps 744 mmHg 89%
    21:00 -9°C° 0 mm 1 mps 744 mmHg 88%
    22:00 -9°C° 0 mm 1 mps 745 mmHg 88%
    23:00 -9°C° 0 mm 1 mps 745 mmHg 87%

    27 January, Monday

    Time Temperature Precipitation Wind Pressure Humidity
    00:00 -10°C° 0 mm 2 mps 745 mmHg 87%
    01:00 -10°C° 0 mm 2 mps 745 mmHg 86%
    02:00 -12°C° 0 mm 3 mps 744 mmHg 85%
    03:00 -10°C° 0 mm 3 mps 744 mmHg 86%
    04:00 -10°C° 0 mm 4 mps 744 mmHg 86%
    05:00 -9°C° 0 mm 4 mps 743 mmHg 86%
    06:00 -9°C° 0.3 mm 4 mps 743 mmHg 89%
    07:00 -8°C° 0.3 mm 5 mps 742 mmHg 91%
    08:00 -7°C° 0.3 mm 5 mps 742 mmHg 93%
    09:00 -7°C° 0.4 mm 5 mps 742 mmHg 93%
    10:00 -6°C° 0.4 mm 5 mps 741 mmHg 93%
    11:00 -6°C° 0.4 mm 5 mps 741 mmHg 93%
    12:00 -5°C° 0.2 mm 5 mps 741 mmHg 93%
    13:00 -5°C° 0.2 mm 5 mps 740 mmHg 93%
    14:00 -4°C° 0.2 mm 5 mps 739 mmHg 93%
    15:00 -4°C° 0.1 mm 5 mps 739 mmHg 94%
    16:00 -2°C° 0.1 mm 4 mps 739 mmHg 95%
    17:00 -2°C° 0.1 mm 4 mps 738 mmHg 95%
    18:00 -2°C° 0.1 mm 4 mps 738 mmHg 96%
    19:00 -2°C° 0.1 mm 4 mps 737 mmHg 96%
    20:00 -2°C° 0.1 mm 4 mps 737 mmHg 97%
    21:00 -2°C° 0.3 mm 4 mps 736 mmHg 97%
    22:00 -2°C° 0.3 mm 4 mps 736 mmHg 97%
    23:00 -2°C° 0.3 mm 4 mps 736 mmHg 97%
    Show more